[[{"header":{"parameterUnit":"m.s-1","parameterCategory":1,"la1":30.2991,"la2":30.254,"lo1":-89.0895,"lo2":-89.0444,"dy":0.0017,"dx":0.0017,"nx":28,"ny":28,"refTime":"2024-04-22T09:00:00:Z","depth":0,"parameterNumber":2,"parameterNumberName":"U-component_of_WINDS"},"data":[0,0,0,0,0,0,0,0,0,0,0,0,0,0,0,0,0,0,0,0,0,0,0,0,0,0,0,0,0,0,0,0,0,0,0,0,0,0,0,0,0,0,0,0,0,0,0,0,0,0,0,0,0,0,0,0,0,0,-4.0095,-4.0096,0,-4.0156,-4.0156,-4.0157,-4.0054,-4.005,-4.0047,-4.0044,-4.0104,-4.0109,-4.0114,0,0,0,0,0,0,0,0,0,0,0,0,0,-3.9889,-3.9894,-4.0095,-4.0096,-4.0097,-4.0156,-4.0156,-4.0157,-4.0055,-4.005,-4.0046,-4.0042,-4.0103,-4.0109,-4.0114,0,0,0,0,0,0,0,0,0,0,0,0,0,-3.9967,-3.9895,-4.0095,-4.0053,-4.0049,-4.0155,-4.0156,-4.0157,-4.0055,-4.005,-4.0045,-4.004,-4.0101,-4.0108,-4.0115,-4.0265,0,0,-4.0137,-4.0141,0,0,0,0,0,0,0,0,-3.9963,-3.9975,-4.0058,-4.0056,-4.0052,-4.0092,-4.0106,-4.0193,-4.0057,-4.0053,-4.0044,-4.0038,-4.0104,-4.0111,-4.0134,-4.0268,-4.027,-4.0138,-4.0143,-4.0146,-4.0148,0,0,0,0,0,0,0,-3.9958,-3.9972,-4.0119,-4.0059,-4.0056,-4.003,-4.0035,-4.0122,-4.0107,-4.0053,-4.0046,-4.0054,-4.0102,-4.0127,-4.0134,-4.0271,-4.0138,-4.0144,-4.0149,-4.0152,-4.0529,-4.0534,0,0,0,0,0,0,-3.9958,-3.9968,-4.0117,-4.0121,-3.9994,-4.0038,-4.0044,-4.0085,-4.0106,-4.0104,-4.0059,-4.0049,-4.0117,-4.0126,-4.0136,-4.0311,-4.0146,-4.0152,-4.0157,-4.0523,-4.053,-4.0536,0,0,0,0,0,0,-3.9954,-3.9972,-4.0115,-4.0042,-4.0059,-4.0047,-4.0094,-4.0088,-4.0113,-4.011,-4.0107,-4.0087,-4.0113,-4.0126,-4.0233,-4.0311,-4.0156,-4.0162,-4.0517,-4.0525,-4.0533,-4.0662,0,0,0,0,0,0,-3.9948,-3.9971,-4.0028,-4.0045,-4.0063,-4.0211,-4.0098,-4.0093,-4.0126,-4.0115,-4.0136,-4.0135,-4.011,-4.0223,-4.0241,-4.0319,-4.0168,-4.0509,-4.0521,-4.0531,-4.0651,-4.0674,-4.0694,0,0,0,0,0,-3.9941,-4.0063,-4.0032,-4.005,-4.0134,-4.0216,-4.0227,-4.0196,-4.0133,-4.019,-4.0188,-4.0134,-4.0301,-4.0235,-4.0254,-4.0335,-4.0504,-4.0517,-4.053,-4.0641,-4.067,-4.0694,0,0,0,0,0,0,-4.0055,-4.0064,-4.003,-4.016,-4.0188,-4.0199,-4.0269,-4.0227,-4.0274,-4.026,-4.0221,-4.0226,-4.0341,-4.0349,-4.0276,-4.048,-4.0392,-4.0409,-4.047,-4.0497,-4.0518,-4.0513,-4.0174,0,0,0,0,0,-4.0096,-4.0162,-4.0166,-4.0281,-4.0296,-4.0281,-4.0316,-4.029,-4.0317,-4.0328,-4.0334,-4.0362,-4.042,-4.046,-4.0514,-4.0653,-4.0655,-4.0718,-4.074,-4.0758,-4.0772,-4.0844,-4.0871,-4.0578,-4.0578,-4.0578,0,0,-4.018,-4.0193,-4.0237,-4.0304,-4.0322,-4.0391,-4.0291,-4.0369,-4.0419,-4.034,-4.044,-4.0447,-4.0475,-4.0599,-4.0653,-4.0609,-4.0854,-4.0774,-4.0788,-4.0792,-4.086,-4.0887,-4.0912,-4.0587,-4.0585,-4.0584,0,0,-4.0367,-4.0385,-4.048,-4.0502,-4.0531,-4.052,-4.0544,-4.0561,-4.0561,-4.0662,-4.0604,-4.0663,-4.0766,-4.0788,-4.0812,-4.1009,-4.096,-4.1028,-4.1139,-4.121,-4.1233,-4.1253,-4.132,-4.1345,-4.1043,-4.1043,-4.1043,0,-4.0467,-4.0568,-4.0535,-4.0616,-4.0646,-4.0579,-4.0675,-4.0697,-4.0743,-4.0765,-4.0716,-4.0841,-4.0857,-4.0983,-4.1031,-4.1054,-4.1078,-4.1023,-4.1232,-4.1252,-4.1271,-4.1334,-4.136,-4.1051,-4.105,-4.1049,-4.1048,0,-4.0688,-4.076,-4.0834,-4.088,-4.0919,-4.1008,-4.0987,-4.1031,-4.1002,-4.0996,-4.1099,-4.1115,-4.117,-4.1199,-4.1172,-4.1322,-4.1293,-4.1239,-4.1148,-4.1307,-4.1366,-4.139,-4.1062,-4.1059,-4.1057,-4.1055,0,0,-4.0947,-4.0974,-4.1001,-4.102,-4.1049,-4.1103,-4.1188,-4.1242,-4.1279,-4.1314,-4.1383,-4.1471,-4.1421,-4.1449,-4.1425,-4.1487,-4.1639,-4.1425,-4.1425,-4.1461,-4.1802,-4.184,-4.1869,-4.1608,-4.1613,-4.1616,-4.1798,0,-4.113,-4.1277,-4.125,-4.1392,-4.1456,-4.1394,-4.1468,-4.1493,-4.149,-4.1544,-4.1541,-4.1603,-4.1534,-4.155,-4.161,-4.1608,-4.1706,-4.1595,-4.167,-4.1673,-4.1661,-4.19,-4.1941,-4.2112,-4.1822,-4.1826,-4.1829,0,-4.1363,-4.1406,-4.1555,-4.1572,-4.1598,-4.1665,-4.1712,-4.1765,-4.1792,-4.1785,-4.1818,-4.1781,-4.1865,-4.1776,-4.189,-4.1815,-4.1845,-4.1849,-4.1855,-4.1858,-4.1758,-4.1907,-4.2166,-4.2191,-4.1865,-4.1862,-4.186,0,-4.1533,-4.1628,-4.1729,-4.1748,-4.1771,-4.1819,-4.1831,-4.1853,-4.1887,-4.1929,-4.195,-4.2001,-4.2028,-4.2068,-4.2045,-4.1984,-4.2163,-4.2073,-4.2158,-4.2159,-4.2196,-4.2193,-4.246,-4.2221,-4.2221,-4.222,-4.222,0,-4.1739,-4.1831,-4.1805,-4.1867,-4.1969,-4.1937,-4.2039,-4.2043,-4.2064,-4.2124,-4.2075,-4.2133,-4.2101,-4.2157,-4.2141,-4.2236,-4.225,-4.2246,-4.2239,-4.2248,-4.2248,-4.2264,-4.2251,-4.2227,-4.2225,-4.2224,-4.2223,0,-4.1944,-4.193,-4.2035,-4.2049,-4.2055,-4.2129,-4.214,-4.2197,-4.2192,-4.2269,-4.2286,-4.2276,-4.2339,-4.2322,-4.239,-4.2379,-4.2499,-4.248,-4.249,-4.2484,-4.2569,-4.256,-4.2853,-4.2888,-4.2629,-4.2632,-4.2634,0,-4.2074,-4.2144,-4.2165,-4.2202,-4.2218,-4.2279,-4.2313,-4.2286,-4.2323,-4.2359,-4.2412,-4.2471,-4.2515,-4.2619,-4.2618,-4.267,-4.2649,-4.2748,-4.2656,-4.2662,-4.2647,-4.2641,-4.2647,-4.2765,-4.2768,-4.2771,-4.2773,0,-4.2306,-4.2296,-4.2347,-4.2397,-4.2439,-4.2477,-4.251,-4.2543,-4.2518,-4.2562,-4.2626,-4.2661,-4.2731,-4.2789,-4.2837,-4.2848,-4.2806,-4.2802,-4.2824,-4.2832,-4.2833,-4.2831,-4.2536,-4.2795,-4.2793,-4.2791,-4.279,-4.2789,-4.2476,-4.2534,-4.2558,-4.2616,-4.2638,-4.267,-4.2724,-4.2725,-4.2778,-4.2832,-4.2813,-4.2886,-4.291,-4.297,-4.2988,-4.3044,-4.3006,-4.3038,-4.3046,-4.3053,-4.3062,-4.2828,-4.3053,-4.3052,-4.3051,-4.3051,-4.305,0,-4.2702,-4.2714,-4.2769,-4.2816,-4.2863,-4.2821,-4.2855,-4.2896,-4.296,-4.2987,-4.3033,-4.3105,-4.3162,-4.3166,-4.3218,-4.3262,-4.3244,-4.3276,-4.3271,-4.3274,-4.3095,-4.3069,-4.329,-4.329,-4.329,-4.329,-4.329,-4.329,-4.2825,-4.2921,-4.2914,-4.302,-4.3031,-4.3102,-4.3125,-4.3154,-4.3175,-4.3258,-4.3304,-4.3307,-4.3324,-4.3378,-4.3427,-4.3427,-4.3447,-4.3487,-4.3479,-4.3311,-4.3287,-4.3264,-4.3239,-4.3492,-4.3493,-4.3653,-4.3654,-4.3655]},{"header":{"parameterUnit":"m.s-1","parameterCategory":1,"la1":30.2991,"la2":30.254,"lo1":-89.0895,"lo2":-89.0444,"dy":0.0017,"dx":0.0017,"nx":28,"ny":28,"refTime":"2024-04-22T09:00:00:Z","depth":0,"parameterNumber":3,"parameterNumberName":"V-component_of_WINDS"},"data":[0,0,0,0,0,0,0,0,0,0,0,0,0,0,0,0,0,0,0,0,0,0,0,0,0,0,0,0,0,0,0,0,0,0,0,0,0,0,0,0,0,0,0,0,0,0,0,0,0,0,0,0,0,0,0,0,0,0,-0.2008,-0.2008,0,-0.2039,-0.2039,-0.2039,-0.2116,-0.2118,-0.212,-0.2121,-0.215,-0.215,-0.2149,0,0,0,0,0,0,0,0,0,0,0,0,0,-0.2012,-0.2012,-0.2008,-0.2008,-0.2009,-0.2039,-0.2039,-0.2039,-0.2116,-0.2118,-0.212,-0.2122,-0.2151,-0.215,-0.2149,0,0,0,0,0,0,0,0,0,0,0,0,0,-0.2023,-0.2012,-0.2008,-0.205,-0.2055,-0.2039,-0.2039,-0.204,-0.2116,-0.2118,-0.2121,-0.2123,-0.2151,-0.215,-0.2149,-0.2093,0,0,-0.2145,-0.2145,0,0,0,0,0,0,0,0,-0.2023,-0.2023,-0.2044,-0.2048,-0.2052,-0.2076,-0.2052,-0.2057,-0.2115,-0.2092,-0.2121,-0.2124,-0.2124,-0.2125,-0.2125,-0.2094,-0.2096,-0.2145,-0.2145,-0.2144,-0.2144,0,0,0,0,0,0,0,-0.2022,-0.2022,-0.202,-0.2044,-0.2049,-0.2067,-0.2071,-0.2053,-0.2094,-0.2095,-0.21,-0.2103,-0.2126,-0.2126,-0.2127,-0.2096,-0.2145,-0.2144,-0.2144,-0.2143,-0.2019,-0.2017,0,0,0,0,0,0,-0.2015,-0.2021,-0.2019,-0.2021,-0.2043,-0.2065,-0.207,-0.2066,-0.2094,-0.2101,-0.2101,-0.2106,-0.2127,-0.2128,-0.2128,-0.2064,-0.2144,-0.2143,-0.2143,-0.2022,-0.2019,-0.2016,0,0,0,0,0,0,-0.2015,-0.2014,-0.2018,-0.2023,-0.2024,-0.2062,-0.2057,-0.2065,-0.2065,-0.2099,-0.2107,-0.2093,-0.2129,-0.2129,-0.2101,-0.2066,-0.2143,-0.2142,-0.2025,-0.2021,-0.2017,-0.1935,0,0,0,0,0,0,-0.2015,-0.2014,-0.1994,-0.2022,-0.2024,-0.1991,-0.2055,-0.2064,-0.2063,-0.2071,-0.2094,-0.21,-0.2131,-0.2102,-0.21,-0.2066,-0.2141,-0.2028,-0.2023,-0.2019,-0.1941,-0.1929,-0.1918,0,0,0,0,0,-0.2015,-0.1969,-0.1992,-0.1992,-0.2,-0.1989,-0.199,-0.2027,-0.206,-0.204,-0.2061,-0.2099,-0.207,-0.2099,-0.2097,-0.2061,-0.2031,-0.2025,-0.2019,-0.1946,-0.1931,-0.1918,0,0,0,0,0,0,-0.1936,-0.1974,-0.2,-0.1962,-0.1972,-0.2002,-0.1978,-0.201,-0.201,-0.2017,-0.2062,-0.2067,-0.2032,-0.2044,-0.2075,-0.2008,-0.2056,-0.205,-0.2002,-0.1988,-0.1976,-0.1974,-0.214,0,0,0,0,0,-0.1914,-0.1903,-0.1936,-0.1899,-0.1903,-0.1939,-0.1936,-0.1963,-0.1975,-0.1979,-0.1999,-0.2008,-0.2001,-0.1995,-0.199,-0.1943,-0.1948,-0.1918,-0.1906,-0.1897,-0.189,-0.1865,-0.1851,-0.1997,-0.1997,-0.1997,0,0,-0.1869,-0.1888,-0.1878,-0.1884,-0.1895,-0.1881,-0.1942,-0.1925,-0.1915,-0.1977,-0.1951,-0.1965,-0.1978,-0.194,-0.1924,-0.1949,-0.1851,-0.1889,-0.1881,-0.188,-0.1858,-0.1844,-0.1831,-0.1993,-0.1993,-0.1994,0,0,-0.1779,-0.1793,-0.1764,-0.1773,-0.1789,-0.1813,-0.1805,-0.1831,-0.1843,-0.1818,-0.1863,-0.1851,-0.1838,-0.1845,-0.1847,-0.1758,-0.1793,-0.1756,-0.1696,-0.1671,-0.1659,-0.1649,-0.1617,-0.1605,-0.1749,-0.1749,-0.1749,0,-0.1721,-0.1703,-0.1744,-0.1724,-0.1725,-0.178,-0.175,-0.1757,-0.1769,-0.1768,-0.1796,-0.178,-0.1793,-0.1756,-0.1734,-0.1734,-0.1726,-0.1753,-0.1658,-0.1648,-0.1639,-0.1609,-0.1597,-0.1744,-0.1745,-0.1745,-0.1746,0,-0.163,-0.1617,-0.1591,-0.1603,-0.16,-0.1575,-0.1611,-0.1604,-0.1631,-0.1652,-0.1625,-0.1642,-0.1641,-0.1634,-0.1661,-0.1601,-0.1616,-0.165,-0.1699,-0.162,-0.1592,-0.1581,-0.1738,-0.1739,-0.1741,-0.1742,0,0,-0.1493,-0.1526,-0.1516,-0.1522,-0.1542,-0.1532,-0.1509,-0.1509,-0.1501,-0.1507,-0.1488,-0.1475,-0.1507,-0.1509,-0.1536,-0.1514,-0.1442,-0.1551,-0.1552,-0.153,-0.1376,-0.1349,-0.1335,-0.1465,-0.1463,-0.1461,-0.1374,0,-0.1408,-0.1372,-0.1407,-0.1363,-0.135,-0.1401,-0.1381,-0.1391,-0.1409,-0.14,-0.142,-0.141,-0.1453,-0.1454,-0.1435,-0.1455,-0.1411,-0.1461,-0.1446,-0.1445,-0.1441,-0.1321,-0.1294,-0.1211,-0.1364,-0.1362,-0.1361,0,-0.1305,-0.1307,-0.1261,-0.1284,-0.128,-0.1261,-0.1263,-0.1255,-0.1266,-0.1281,-0.1282,-0.1315,-0.1293,-0.1341,-0.131,-0.1343,-0.1339,-0.1347,-0.1345,-0.1345,-0.1398,-0.1317,-0.1186,-0.1173,-0.1344,-0.1345,-0.1347,0,-0.1208,-0.12,-0.1171,-0.1174,-0.12,-0.1185,-0.1195,-0.1209,-0.1206,-0.1207,-0.1205,-0.1204,-0.1202,-0.12,-0.1231,-0.1263,-0.1195,-0.1246,-0.1206,-0.1205,-0.119,-0.119,-0.1055,-0.1187,-0.1187,-0.1187,-0.1188,0,-0.111,-0.108,-0.1128,-0.111,-0.1077,-0.1118,-0.1084,-0.1099,-0.1111,-0.1096,-0.114,-0.1125,-0.1167,-0.1156,-0.1181,-0.1151,-0.115,-0.116,-0.1167,-0.1156,-0.1155,-0.1154,-0.116,-0.1184,-0.1185,-0.1186,-0.1186,0,-0.0997,-0.1028,-0.1,-0.1026,-0.1032,-0.1007,-0.1029,-0.1013,-0.1034,-0.1014,-0.1012,-0.1044,-0.1034,-0.1065,-0.1059,-0.1075,-0.1031,-0.1047,-0.1027,-0.1032,-0.099,-0.0993,-0.0849,-0.0832,-0.0975,-0.0974,-0.0973,0,-0.0932,-0.091,-0.0934,-0.0928,-0.0935,-0.0924,-0.0922,-0.096,-0.0955,-0.0965,-0.0948,-0.0941,-0.0937,-0.0917,-0.0939,-0.0935,-0.0951,-0.0901,-0.095,-0.094,-0.0949,-0.095,-0.0948,-0.089,-0.0889,-0.0887,-0.0886,0,-0.0814,-0.083,-0.0825,-0.0824,-0.0819,-0.0821,-0.0825,-0.0817,-0.0858,-0.085,-0.084,-0.0837,-0.083,-0.0822,-0.0822,-0.0831,-0.0865,-0.087,-0.0861,-0.0849,-0.0838,-0.0843,-0.0999,-0.0873,-0.0875,-0.0876,-0.0876,-0.0877,-0.0723,-0.0705,-0.0719,-0.0711,-0.0718,-0.0721,-0.0707,-0.0726,-0.0718,-0.0717,-0.0739,-0.0724,-0.0734,-0.0738,-0.0743,-0.0731,-0.0754,-0.074,-0.0737,-0.0732,-0.0725,-0.084,-0.0731,-0.0732,-0.0732,-0.0732,-0.0733,0,-0.0606,-0.0617,-0.061,-0.0614,-0.0607,-0.064,-0.0646,-0.0638,-0.0624,-0.0632,-0.0627,-0.0615,-0.0607,-0.0628,-0.0623,-0.0609,-0.0624,-0.0606,-0.0607,-0.0609,-0.0705,-0.0714,-0.0594,-0.0594,-0.0594,-0.0594,-0.0594,-0.0594,-0.0545,-0.0516,-0.0534,-0.0509,-0.052,-0.0506,-0.0506,-0.0508,-0.0515,-0.0499,-0.0493,-0.0507,-0.0519,-0.0515,-0.0509,-0.0515,-0.0511,-0.0488,-0.0499,-0.0589,-0.0602,-0.0615,-0.0623,-0.0486,-0.0486,-0.0404,-0.0403,-0.0402]}]]